Kosmos-2187

operational
NORAD ID: 21976 Int'l Des: 1992-030 Owner: VVSR Country: RU
LEOCIRCULAR

Kosmos-2187について

説明を読み込み中...

リアルタイム位置

3D地球を読み込み中...

次回通過

高度履歴

Altitude vs Time

uPlot chart will show altitude changes over time

軌道要素

1 21976U 92030A 26062.48425036 -.00000011 00000-0 33444-4 0 9992
2 21976 73.9997 251.6957 0050095 141.9433 244.1561 12.55735356546976
Epoch: Mar 3, 2026 • Age: 41 hours

現在のステータス

高度 1477.4 km
速度 7.12 km/s
衛星直下点 -64.16°S, 41.4°E
打ち上げ日 Jun 3, 1992
運用期間 33.7 years
タイプ other

技術仕様

分類 Payload
質量 60.00 kg
乾燥質量 60.00 kg
総質量 60.00 kg
長さ 0.80 m
直径 0.80 m
スパン 0.80 m
形状 Poly
製造者 NPOPM
バスタイプ Strela-1 11F625
フェーズステータス In Orbit
所有者/国 VVSR/RU

大規模コンステレーション

Loading constellations...